Location: Home
(42.5358°N, 72.7383°W)
Time: 11:16:01
(UTC-05:00)

S-56A Canister/Altair - Pass Details

Date: 05 December 2021
Orbit: 634 x 2499 km, 38.9° (Epoch: 22 January)

Event Time Altitude Azimuth Distance (km) Brightness Sun altitude
Rises 22:53:12 0° 234° (SW) 5,641 - -67.5°
Reaches altitude 10° 22:57:26 10° 230° (SW) 4,385 - -67.9°
Maximum altitude 23:08:04 49° 161° (SSE) 1,825 - -68.8°
Drops below altitude 10° 23:15:11 10° 89° (E) 2,981 - -69.2°
Sets 23:17:33 0° 83° (E) 3,737 - -69.3°
